Nome, AK

6:53 AM AKDT on March 25, 2017 (GMT -0800)
Nome

Weather History for PAOM - December, 2013

Change the Weather History Date:

Friday, December 27, 2013

  Actual Average Record
Temperature  
Mean Temperature -3 °F 7 °F  
Max Temperature 7 °F 15 °F 40 °F (1993)
Min Temperature -12 °F 0 °F -41 °F (1961)
Degree Days  
Heating Degree Days 68 58  
Month to date heating degree days 1326 1488  
Since 1 July heating degree days 5127 5581  
Cooling Degree Days 0 0  
Month to date cooling degree days 0 0  
Year to date cooling degree days 7 3  
Moisture  
Dew Point -14 °F    
Average Humidity 0    
Maximum Humidity 0    
Minimum Humidity 0    
Precipitation  
Precipitation 0.00 in 0.04 in 0.50 in (1994)
Month to date precipitation 1.98 0.94  
Year to date precipitation 22.30 16.67  
Snow  
Snow 0.00 in 0.50 in 7.00 in (1994)
Month to date snowfall 18.1 12.5  
Since 1 July snowfall 32.7 29.8  
Snow Depth 16.00 in    
Sea Level Pressure  
Sea Level Pressure 30.09 in    
Wind  
Wind Speed 7 mph (NE)    
Max Wind Speed 18 mph    
Max Gust Speed 25 mph    
Visibility 10 miles    
Events Snow    
T = Trace of Precipitation, MM = Missing Value Source: NWS Daily Summary

Daily Weather History Graph

Daily Weather History Graph

Search for Another Location

Airport or City:

Trip Planner

Search our weather history database for the weather conditions in past years. The results will help you decide how hot, cold, wet, or windy it might be!

Date:

Astronomy

Dec. 27, 2013 Rise Set
Actual Time 12:03 PM AKST 4:03 PM AKST
Civil Twilight 10:41 AM AKST 5:24 PM AKST
Nautical Twilight 9:31 AM AKST 6:34 PM AKST
Astronomical Twilight 8:30 AM AKST 7:35 PM AKST
Moon 5:16 AM AKST (12/27) 1:46 PM AKST (12/27)
Length of Visible Light 6h 42m
Length of Day
4h 00m
Waning Crescent, 27% of the Moon is Illuminated
Dec 27
Waning Crescent
Jan 1
New
Jan 7
First Quarter
Jan 15
Full
Jan 23
Last Quarter

Hourly Weather History & Observations

Time (AKST) Temp. Windchill Dew Point Humidity Pressure Visibility Wind Dir Wind Speed Gust Speed Precip Events Conditions
12:53 AM 3.9 °F -12.2 °F -11.9 °F 48% 30.09 in 10.0 mi NE 11.5 mph - N/A   Scattered Clouds
1:53 AM 3.9 °F -13.7 °F -11.0 °F 50% 30.10 in 10.0 mi NNE 13.8 mph - N/A   Scattered Clouds
2:53 AM 7.0 °F -9.8 °F -13.0 °F 40% 30.10 in 10.0 mi ENE 13.8 mph 25.3 mph N/A Snow Low Drifting Snow
3:53 AM 6.1 °F -11.6 °F -14.1 °F 39% 30.09 in 10.0 mi ENE 15.0 mph - N/A Snow Low Drifting Snow
4:53 AM 5.0 °F -8.1 °F -11.9 °F 46% 30.10 in 10.0 mi ENE 8.1 mph - N/A Snow Low Drifting Snow
5:53 AM 5.0 °F -12.3 °F -11.9 °F 46% 30.10 in 10.0 mi ENE 13.8 mph - N/A Snow Low Drifting Snow
5:55 AM 5.0 °F -12.3 °F -11.9 °F 46% 30.10 in 10.0 mi ENE 13.8 mph - N/A Snow Low Drifting Snow
6:53 AM 3.0 °F -13.3 °F -11.9 °F 50% 30.10 in 10.0 mi NE 11.5 mph - N/A Snow Low Drifting Snow
6:55 AM 3.0 °F -13.3 °F -11.9 °F 50% 30.10 in 10.0 mi NE 11.5 mph - N/A Snow Low Drifting Snow
7:53 AM 3.9 °F -9.4 °F -13.0 °F 46% 30.11 in 10.0 mi ENE 8.1 mph - N/A   Partly Cloudy
8:53 AM 5.0 °F -10.0 °F -11.9 °F 46% 30.10 in 10.0 mi NE 10.4 mph - N/A   Partly Cloudy
9:53 AM 1.9 °F -7.6 °F -11.9 °F 52% 30.11 in 10.0 mi West 4.6 mph - N/A   Clear
10:53 AM 3.0 °F -6.4 °F -11.9 °F 50% 30.11 in 10.0 mi SSE 4.6 mph - N/A   Clear
11:53 AM 1.0 °F -11.7 °F -13.0 °F 52% 30.10 in 10.0 mi NE 6.9 mph - N/A   Clear
12:53 PM -0.0 °F -9.9 °F -13.0 °F 54% 30.09 in 8.0 mi East 4.6 mph - N/A   Clear
1:53 PM 1.9 °F -12.9 °F -13.0 °F 50% 30.10 in 10.0 mi NE 9.2 mph - N/A   Clear
2:53 PM 1.0 °F -11.7 °F -14.1 °F 49% 32.26 in 10.0 mi NE 6.9 mph - N/A   Clear
3:53 PM 1.0 °F -14.0 °F -14.1 °F 49% 30.09 in 10.0 mi NE 9.2 mph - N/A   Clear
4:53 PM -0.9 °F - -15.0 °F 52% 30.09 in 10.0 mi Calm Calm - N/A   Clear
5:53 PM -2.0 °F -18.7 °F -15.0 °F 54% 30.08 in 10.0 mi NE 10.4 mph - N/A   Clear
6:53 PM -2.0 °F -16.6 °F -16.1 °F 51% 30.08 in 10.0 mi NNE 8.1 mph - N/A   Clear
7:53 PM -2.9 °F - -16.1 °F 54% 30.08 in 10.0 mi Calm Calm - N/A   Clear
8:53 PM -7.1 °F -15.9 °F -17.0 °F 62% 30.07 in 10.0 mi West 3.5 mph - N/A   Clear
9:53 PM -11.0 °F - -18.9 °F 68% 30.07 in 10.0 mi Calm Calm - N/A   Clear
10:53 PM -7.1 °F - -18.0 °F 59% 30.06 in 10.0 mi Calm Calm - N/A   Clear
11:53 PM -9.9 °F - -18.0 °F 68% 30.07 in 10.0 mi Calm Calm - N/A   Clear